| time (UTC) | temp F | wind direction | speed MPH | gust MPH | rain 1hr in | rain 24hr in | rain mn in | humidity % | barometer mb |
| 20260505152757 | 61 | 224 | 6.0 | 8.0 | 0.00 | 0.00 | 1.07 | 93 | 1012.8 |
| 20260505151257 | 61 | 197 | 7.0 | 8.0 | 0.00 | 0.00 | 1.07 | 91 | 1012.8 |
| 20260505124256 | 64 | 229 | 4.0 | 5.0 | 0.00 | 0.00 | 1.07 | 87 | 1013.0 |
| 20260505122756 | 63 | 264 | 6.0 | 8.0 | 0.00 | 0.00 | 1.07 | 89 | 1013.0 |
| 20260505121255 | 62 | 198 | 9.0 | 9.0 | 0.00 | 0.00 | 1.07 | 89 | 1013.0 |
| 20260505115755 | 64 | 267 | 5.0 | 8.0 | 0.00 | 0.00 | 1.07 | 86 | 1012.9 |
| 20260505114255 | 64 | 184 | 7.0 | 9.0 | 0.00 | 0.00 | 1.07 | 88 | 1012.9 |
| 20260505112755 | 63 | 179 | 12.0 | 15.0 | 0.00 | 0.00 | 1.07 | 89 | 1012.9 |
| 20260505111254 | 63 | 194 | 11.0 | 15.0 | 0.00 | 0.00 | 1.07 | 89 | 1012.8 |
| 20260505101252 | 64 | 268 | 0.0 | 1.0 | 0.00 | 0.00 | 1.07 | 87 | 1012.6 |
| 20260505095752 | 61 | 264 | 1.0 | 2.0 | 0.00 | 0.00 | 1.07 | 99 | 1012.7 |
| 20260505094252 | 59 | 204 | 2.0 | 2.0 | 0.00 | 0.00 | 1.07 | 99 | 1012.1 |
| 20260505092751 | 57 | 350 | 3.0 | 4.0 | 0.00 | 0.00 | 1.07 | 99 | 1012.3 |
| 20260505091251 | 55 | 256 | 3.0 | 4.0 | 0.00 | 0.00 | 1.07 | 99 | 1012.2 |
| 20260505085751 | 55 | 49 | 3.0 | 4.0 | 0.00 | 0.00 | 1.07 | 99 | 1012.3 |
| 20260505084250 | 54 | 52 | 3.0 | 4.0 | 0.00 | 0.00 | 1.07 | 99 | 1012.1 |
| 20260505082750 | 54 | 38 | 2.0 | 3.0 | 0.00 | 0.00 | 1.07 | 99 | 1012.1 |
| 20260505081250 | 54 | 290 | 2.0 | 3.0 | 0.00 | 0.00 | 1.07 | 99 | 1011.8 |
| 20260505075750 | 53 | 68 | 8.0 | 12.0 | 0.00 | 0.00 | 1.07 | 99 | 1011.9 |
| 20260505074250 | 54 | 43 | 6.0 | 8.0 | 0.00 | 0.00 | 1.07 | 99 | 1012.1 |
| 20260505072750 | 53 | 343 | 2.0 | 2.0 | 0.00 | 0.00 | 1.07 | 99 | 1012.3 |
| 20260505071250 | 53 | 18 | 4.0 | 6.0 | 0.12 | 0.00 | 1.07 | 99 | 1012.0 |
| 20260505065750 | 53 | 316 | 4.0 | 5.0 | 0.19 | 0.00 | 1.05 | 99 | 1012.0 |
| 20260505064249 | 53 | 35 | 5.0 | 7.0 | 0.43 | 0.00 | 1.00 | 99 | 1012.2 |
| 20260505062749 | 54 | 268 | 0.0 | 0.0 | 0.54 | 0.00 | 0.90 | 99 | 1012.1 |
| 20260505061248 | 54 | 230 | 9.0 | 12.0 | 0.59 | 0.00 | 0.74 | 99 | 1012.0 |
| 20260505055748 | 54 | 10 | 4.0 | 5.0 | 0.19 | 0.00 | 0.61 | 99 | 1011.2 |
| 20260505054248 | 54 | 88 | 4.0 | 5.0 | 0.07 | 0.00 | 0.57 | 99 | 1010.9 |
| 20260505052747 | 53 | 28 | 7.0 | 8.0 | 0.12 | 0.00 | 0.55 | 99 | 1010.7 |
| 20260505051247 | 53 | 71 | 4.0 | 6.0 | 0.17 | 0.00 | 0.52 | 99 | 1010.8 |
| 20260505041245 | 53 | 21 | 3.0 | 4.0 | 0.12 | 0.00 | 0.32 | 99 | 1011.9 |
| 20260505035745 | 53 | 64 | 6.0 | 7.0 | 0.05 | 0.00 | 0.30 | 99 | 1011.7 |
| 20260505034245 | 53 | 88 | 4.0 | 5.0 | 0.26 | 0.00 | 0.27 | 99 | 1011.8 |
| 20260505032744 | 53 | 45 | 5.0 | 6.0 | 0.00 | 0.00 | 0.23 | 99 | 1012.2 |
| 20260505031244 | 53 | 12 | 6.0 | 8.0 | 0.00 | 0.00 | 0.23 | 99 | 1012.4 |
| 20260505025743 | 53 | 313 | 2.0 | 3.0 | 0.12 | 0.00 | 0.22 | 99 | 1012.5 |
| 20260505024243 | 53 | 74 | 4.0 | 5.0 | 0.17 | 0.00 | 0.19 | 98 | 1012.9 |
| 20260505022743 | 54 | 258 | 0.0 | 1.0 | 0.31 | 0.00 | 0.15 | 98 | 1013.1 |
| 20260505021242 | 54 | 328 | 2.0 | 3.0 | 0.12 | 0.00 | 0.09 | 96 | 1013.4 |
| 20260505015742 | 54 | 332 | 3.0 | 3.0 | 0.05 | 0.00 | 0.06 | 94 | 1013.3 |
| 20260505014242 | 55 | 41 | 3.0 | 4.0 | 0.07 | 0.00 | 0.05 | 92 | 1013.6 |
| 20260505012741 | 55 | 31 | 2.0 | 2.0 | 0.05 | 0.00 | 0.04 | 89 | 1013.9 |
| 20260505011241 | 57 | 291 | 1.0 | 1.0 | 0.05 | 0.00 | 0.02 | 85 | 1014.2 |
| 20260505005740 | 57 | 335 | 1.0 | 1.0 | 0.07 | 0.00 | 0.01 | 83 | 1014.4 |
| 20260505004240 | 57 | 346 | 1.0 | 1.0 | 0.00 | 0.00 | 0.00 | 84 | 1014.6 |
| 20260505002740 | 58 | 249 | 1.0 | 1.0 | 0.00 | 0.00 | 0.00 | 80 | 1014.9 |
| 20260505001239 | 59 | 245 | 1.0 | 1.0 | 0.00 | 0.00 | 0.00 | 78 | 1015.1 |
| 20260504235739 | 59 | 293 | 1.0 | 2.0 | 0.00 | 0.00 | 0.00 | 76 | 1015.1 |
| 20260504234238 | 59 | 226 | 1.0 | 1.0 | 0.00 | 0.00 | 0.00 | 76 | 1015.6 |
| 20260504232738 | 59 | 244 | 0.0 | 1.0 | 0.00 | 0.00 | 0.00 | 76 | 1015.3 |
| 20260504231238 | 59 | 250 | 1.0 | 2.0 | 0.00 | 0.00 | 0.00 | 76 | 1015.8 |
| 20260504225737 | 58 | 275 | 1.0 | 1.0 | 0.00 | 0.00 | 0.00 | 79 | 1016.0 |
| 20260504224237 | 58 | 37 | 2.0 | 2.0 | 0.00 | 0.00 | 0.00 | 79 | 1016.2 |
| 20260504222737 | 58 | 36 | 2.0 | 3.0 | 0.00 | 0.00 | 0.00 | 78 | 1016.5 |
| 20260504221236 | 58 | 10 | 3.0 | 4.0 | 0.00 | 0.00 | 0.00 | 79 | 1016.7 |
| 20260504215736 | 59 | 115 | 2.0 | 3.0 | 0.00 | 0.00 | 0.00 | 78 | 1017.0 |
| 20260504214235 | 59 | 267 | 2.0 | 2.0 | 0.00 | 0.00 | 0.00 | 79 | 1017.4 |
| 20260504212735 | 58 | 317 | 1.0 | 1.0 | 0.00 | 0.00 | 0.00 | 80 | 1017.4 |
| 20260504211235 | 59 | 245 | 1.0 | 1.0 | 0.00 | 0.00 | 0.00 | 79 | 1017.6 |
| 20260504205734 | 59 | 218 | 1.0 | 1.0 | 0.00 | 0.00 | 0.00 | 80 | 1017.7 |
| 20260504204234 | 59 | 284 | 0.0 | 1.0 | 0.00 | 0.00 | 0.00 | 82 | 1017.4 |
| 20260504202733 | 59 | 74 | 2.0 | 3.0 | 0.00 | 0.00 | 0.00 | 81 | 1017.5 |
| 20260504201233 | 59 | 351 | 3.0 | 3.0 | 0.00 | 0.00 | 0.00 | 83 | 1017.5 |
| 20260504195733 | 59 | 37 | 3.0 | 3.0 | 0.00 | 0.00 | 0.00 | 83 | 1017.6 |
| 20260504194232 | 59 | 24 | 3.0 | 3.0 | 0.00 | 0.00 | 0.00 | 85 | 1017.4 |
| 20260504192732 | 60 | 329 | 1.0 | 2.0 | 0.00 | 0.00 | 0.00 | 84 | 1017.4 |
| 20260504191232 | 60 | 283 | 0.0 | 0.0 | 0.00 | 0.00 | 0.00 | 84 | 1017.4 |
| 20260504185731 | 60 | 264 | 0.0 | 0.0 | 0.00 | 0.00 | 0.00 | 83 | 1017.5 |
| 20260504184231 | 60 | 213 | 3.0 | 3.0 | 0.00 | 0.00 | 0.00 | 84 | 1017.6 |
| 20260504182731 | 60 | 139 | 1.0 | 2.0 | 0.00 | 0.00 | 0.00 | 83 | 1017.7 |
| 20260504181230 | 60 | 223 | 1.0 | 2.0 | 0.00 | 0.00 | 0.00 | 83 | 1017.2 |
| 20260504175730 | 61 | 244 | 1.0 | 1.0 | 0.00 | 0.00 | 0.00 | 81 | 1017.0 |
| 20260504174230 | 61 | 235 | 3.0 | 4.0 | 0.00 | 0.00 | 0.00 | 82 | 1017.2 |
| 20260504172730 | 61 | 212 | 4.0 | 5.0 | 0.00 | 0.00 | 0.00 | 81 | 1017.3 |
| 20260504171230 | 61 | 227 | 2.0 | 3.0 | 0.00 | 0.00 | 0.00 | 82 | 1017.4 |